Tracking 31080 objects as of 20-Jul-2025
HD Live streaming from Space Station
objects crossing your sky now

METEOR 2-6 DEB

Track METEOR 2-6 DEB now!
10-day predictions


NORAD ID: 45501
Int'l Code: 1980-073V
Perigee: 765.9 km
Apogee: 814.5 km
Inclination: 81.2 °
Period: 100.5 minutes
Semi major axis: 7161 km
RCS: Unknown
Launch date: September 9, 1980
Source: Commonwealth of Independent States (former USSR) (CIS)
Launch site: PLESETSK MISSILE AND SPACE COMPLEX (PKMTR)

Note: This is SATELLITE DEBRIS
Your satellite tracking list
Your tracking list is empty




NASA's NSSDC Master Catalog

Two Line Element Set (TLE):
1 45501U 80073V   25200.20056016  .00004222  00000-0  15411-2 0  9996
2 45501  81.2146  12.2891 0033963 203.4361 156.5276 14.32594334522554
Source of the keplerian elements: AFSPC